{"data":{"norad_id":65370,"epoch":"2026-09-20T11:51:16.124832Z","epoch_age_seconds":115382,"freshness":"FRESH","line1":"1 65370U 25190V   26263.49393663  .00025817  00000+0  77250-3 0  9996","line2":"2 65370  53.1606 341.7027 0001165  83.3126 276.8009 15.34404534 59137","mean_motion":15.34404534,"eccentricity":0.0001165,"inclination_deg":53.1606,"raan_deg":341.7027,"arg_perigee_deg":83.3126,"mean_anomaly_deg":276.8009,"bstar":0.0007725,"rev_number":5913,"period_min":93.847480771326,"perigee_km":461.89280791876,"apogee_km":463.48672055483,"semimajor_km":6840.8267642368,"source":"CELESTRAK","updated_at":"2026-09-21T09:00:35.579125Z"}}